Weather History for KPMP - March, 2013

Change the Weather History Date:

Wednesday, March 20, 2013

  Actual Average Record
Temperature  
Mean Temperature 72 °F -  
Max Temperature 81 °F 81 °F - (-1)
Min Temperature 64 °F 61 °F - (-1)
Cooling Degree Days 7    
Growing Degree Days 22 (Base 50)    
Moisture  
Dew Point 65 °F    
Average Humidity 83    
Maximum Humidity 100    
Minimum Humidity 53    
Precipitation  
Precipitation 0.01 in - - ()
Sea Level Pressure  
Sea Level Pressure 29.92 in    
Wind  
Wind Speed 4 mph (SSW)    
Max Wind Speed 16 mph    
Max Gust Speed 31 mph    
Visibility 8 miles    
Events      
Averages and records for this station are not official NWS values.
T = Trace of Precipitation, MM = Missing Value Source: NWS Daily Summary

Daily Weather History Graph

Daily Weather History Graph

Search for Another Location

Airport or City:

Trip Planner

Search our weather history database for the weather conditions in past years. The results will help you decide how hot, cold, wet, or windy it might be!

Date:

Astronomy

Mar. 20, 2013 Rise Set
Actual Time 7:24 AM EDT 7:31 PM EDT
Civil Twilight 7:01 AM EDT 7:54 PM EDT
Nautical Twilight 6:34 AM EDT 8:21 PM EDT
Astronomical Twilight 6:07 AM EDT 8:48 PM EDT
Moon 1:35 PM EDT (3/20) 2:32 AM EDT (3/20)
Length of Visible Light 12h 53m
Length of Day
12h 07m
First Quarter, 59% of the Moon is Illuminated
Mar 20
First Quarter
Mar 27
Full
Apr 3
Last Quarter
Apr 10
New
Apr 18
First Quarter

Hourly Weather History & Observations

Time (EDT) Temp. Heat Index Dew Point Humidity Pressure Visibility Wind Dir Wind Speed Gust Speed Precip Events Conditions
12:53 AM 68.0 °F - 68.0 °F 100% 29.96 in 8.0 mi Calm Calm - N/A   Clear
1:53 AM 68.0 °F - 66.9 °F 96% 29.96 in 8.0 mi WSW 4.6 mph - N/A   Clear
2:53 AM 66.9 °F - 66.0 °F 97% 29.95 in 8.0 mi Calm Calm - N/A   Scattered Clouds
3:53 AM 64.9 °F - 64.9 °F 100% 29.93 in 2.5 mi NNW 3.5 mph - N/A   Clear
4:01 AM 64.4 °F - 64.4 °F 100% 29.93 in 4.0 mi NNW 3.5 mph - 0.01 in   Clear
4:53 AM 64.9 °F - 64.9 °F 100% 29.92 in 4.0 mi Calm Calm - 0.01 in   Clear
5:12 AM 64.4 °F - 64.4 °F 100% 29.92 in 2.0 mi NNW 3.5 mph - N/A   Clear
5:24 AM 64.4 °F - 64.4 °F 100% 29.92 in 1.5 mi Calm Calm - N/A   Clear
5:29 AM 64.4 °F - 64.4 °F 100% 29.92 in 3.0 mi Calm Calm - N/A   Clear
5:53 AM 64.9 °F - 64.9 °F 100% 29.93 in 3.0 mi Calm Calm - N/A   Clear
6:53 AM 64.9 °F - 64.9 °F 100% 29.95 in 6.0 mi Calm Calm - N/A   Clear
7:53 AM 66.0 °F - 66.0 °F 100% 29.95 in 5.0 mi Calm Calm - N/A   Clear
8:53 AM 70.0 °F - 68.0 °F 93% 29.97 in 5.0 mi Calm Calm - N/A   Clear
9:53 AM 75.0 °F - 68.0 °F 79% 29.99 in 10.0 mi Calm Calm - N/A   Clear
10:53 AM 75.9 °F - 66.0 °F 71% 29.97 in 10.0 mi East 4.6 mph - N/A   Mostly Cloudy
11:53 AM 78.1 °F - 66.0 °F 66% 29.96 in 10.0 mi ESE 8.1 mph - N/A   Scattered Clouds
12:53 PM 78.1 °F - 64.9 °F 64% 29.94 in 10.0 mi SE 11.5 mph - N/A   Partly Cloudy
1:53 PM 78.1 °F - 66.0 °F 66% 29.90 in 10.0 mi SE 13.8 mph - N/A   Mostly Cloudy
2:53 PM 80.1 °F 82.3 °F 66.9 °F 64% 29.87 in 10.0 mi SSE 12.7 mph - N/A   Scattered Clouds
3:53 PM 78.1 °F - 66.9 °F 68% 29.85 in 10.0 mi SE 13.8 mph - N/A   Mostly Cloudy
4:53 PM 77.0 °F - 66.0 °F 69% 29.84 in 10.0 mi South 10.4 mph 18.4 mph N/A   Clear
5:53 PM 75.0 °F - 70.0 °F 84% 29.83 in 10.0 mi SSE 8.1 mph - 0.00 in   Mostly Cloudy
6:53 PM 75.0 °F - 69.1 °F 82% 29.85 in 10.0 mi South 4.6 mph - N/A   Mostly Cloudy
7:53 PM 75.9 °F - 63.0 °F 64% 29.87 in 10.0 mi WNW 10.4 mph - N/A   Scattered Clouds
8:53 PM 75.0 °F - 57.0 °F 53% 29.91 in 10.0 mi WNW 15.0 mph - N/A   Scattered Clouds
9:53 PM 72.0 °F - 57.0 °F 59% 29.95 in 10.0 mi WNW 16.1 mph 31.1 mph N/A   Mostly Cloudy
10:53 PM 69.1 °F - 59.0 °F 70% 29.90 in 10.0 mi West 13.8 mph 17.3 mph N/A   Partly Cloudy
11:53 PM 66.9 °F - 59.0 °F 76% 29.86 in 10.0 mi West 9.2 mph - N/A   Clear